Location: Lasqueti Island Observatory
(49.4855°N, 124.2726°W)
Time: 01:57:56
(UTC-08:00)

Daily predictions for brighter satellites

Satellite Brightness Start Highest point End
(mag) Time Altitude Azimuth Time Altitude Azimuth Time Altitude Azimuth
CZ-4C R/B 4.5 03:50:01 21° NNE 03:50:01 21° NNE 03:53:37 10° NE
SL-16 R/B 4.3 04:11:03 19° NNE 04:11:03 19° NNE 04:12:31 10° NNE
Lacrosse 5 3.9 04:10:49 25° E 04:10:49 25° E 04:13:16 10° ENE
Lacrosse 5 rocket 4.2 04:25:39 15° NE 04:25:39 15° NE 04:26:32 10° ENE
Cosmos 2237 Rocket 4.4 04:37:01 14° N 04:37:01 14° N 04:37:54 10° NNE
CENTAUR R/B 3.3 04:43:33 43° N 04:43:33 43° N 04:49:13 10° NE
ATLAS 5 CENTAUR R/B 3.9 04:48:23 21° N 04:48:33 21° N 04:52:57 10° ENE
Nadezhda 3 Rocket 4.2 04:49:03 24° N 04:53:05 72° ENE 04:59:27 10° SSE
Cosmos 2369 Rocket 2.7 04:55:39 51° S 04:55:39 51° S 04:59:53 10° SSE
Lacrosse 4 Rocket 2.9 04:56:01 34° E 04:56:01 34° E 04:58:54 10° ESE
Cosmos 1025 Rocket 4.0 04:57:49 45° E 04:57:49 45° E 05:01:34 10° SSE
Cosmos 2219 Rocket 4.4 05:04:34 12° N 05:04:34 12° N 05:05:17 10° N
Meteor 1-11 Rocket 4.1 04:58:06 10° S 05:03:47 63° E 05:09:24 10° NNE
Meteor 2-4 Rocket 3.9 05:02:21 36° N 05:04:40 68° ENE 05:10:20 10° SSE
Cosmos 1603 3.9 05:06:16 59° N 05:06:16 59° N 05:10:57 10° NNE
Meteor 1-13 Rocket 4.2 05:08:19 70° SW 05:08:19 70° SW 05:13:45 10° S
ATLAS 3B R/B 4.1 05:06:36 24° NNW 05:08:45 27° NNE 05:14:30 10° ENE
ADEOS II 3.7 05:05:31 10° N 05:07:28 23° N 05:07:28 23° N
Cosmos 2074 Rocket 4.4 05:15:47 46° NNW 05:15:47 46° NNW 05:20:25 10° N
Cosmos 44 Rocket 3.3 05:20:09 74° NNW 05:20:09 74° NNW 05:25:03 10° NE
Cosmos 1943 Rocket 2.1 05:19:13 55° NNW 05:20:30 84° ENE 05:26:01 10° SSE
Cosmos 1452 Rocket 3.6 05:21:45 60° SW 05:21:45 60° SW 05:26:25 10° S
Cosmos 1943 3.2 05:21:04 21° SSW 05:24:57 81° ESE 05:30:39 10° NNE
Cosmos 2341 Rocket 4.0 05:25:24 10° S 05:31:39 82° E 05:37:56 10° N
Cosmos 2184 Rocket 4.4 05:37:12 40° NW 05:37:12 40° NW 05:42:07 10° N
Cosmos 1656 Rocket 4.2 05:33:07 23° NNW 05:36:35 58° ENE 05:42:11 10° SE
CZ-4C R/B 3.9 05:35:12 21° NNW 05:38:43 33° NNE 05:45:19 10° E
Cosmos 2333 Rocket 4.2 05:41:03 12° NNW 05:41:03 12° NNW 05:42:22 10° N
COSMO-SKYMED 1 2.5 05:38:39 10° S 05:42:56 62° WSW 05:42:59 62° W
Cosmos 1536 3.2 05:44:07 49° N 05:44:07 49° N 05:47:12 10° N
Okean 2 3.3 05:43:45 39° N 05:45:17 90° ESE 05:49:27 10° S
CZ-3 R/B 4.2 05:42:13 10° SW 05:45:52 12° SSW 05:48:27 10° S
NOAA 6 3.9 05:45:23 10° N 05:50:30 70° WNW 05:55:36 10° SSW
Lacrosse 5 1.9 05:50:03 46° W 05:51:24 63° NNW 05:56:29 10° NE
SL-16 R/B 3.7 05:52:57 19° NNW 05:52:57 19° NNW 05:56:01 10° N
Cosmos 2154 Rocket 4.0 05:46:27 10° SSW 05:52:33 58° WNW 05:58:40 10° N
Cosmos 839 Rocket 4.0 05:49:26 30° NW 05:52:49 70° WSW 05:58:54 10° SSE
SJ-6F 4.4 05:50:38 10° N 05:54:38 54° WNW 05:58:36 10° SSW
Cosmos 2084 3.7 05:52:47 15° SSW 05:55:45 57° SE 05:59:30 10° NE
USA 229 DEB 3.8 05:49:06 10° SSW 05:55:58 78° SE 06:02:59 10° NE
USA 229 3.8 05:49:12 10° SSW 05:56:04 77° SE 06:03:04 10° NE
CZ-4 R/B 3.4 05:52:46 10° NE 05:56:13 29° E 05:59:38 10° SSE
Cosmos 1892 Rocket 3.5 05:53:34 22° NNW 05:56:25 78° W 06:00:53 10° S
Cosmos 1340 2.5 05:57:02 57° NW 05:57:32 64° W 06:01:17 10° S
Meteor 1-28 Rocket 3.1 05:54:34 10° S 05:58:23 73° WSW 05:59:44 38° NNW
Cosmos 1980 Rocket 4.5 05:56:47 10° N 05:59:18 13° NNE 06:01:49 10° NE
Cosmos 44 3.4 05:58:04 28° WSW 06:00:49 62° NW 06:05:53 10° NE
Lacrosse 5 rocket 2.4 06:01:22 29° NNW 06:02:48 39° NNE 06:06:59 10° E
SWAS 4.4 06:01:02 32° NNW 06:02:58 89° ENE 06:07:15 10° SSE
Cosmos 1626 Rocket 4.4 06:02:24 10° N 06:06:45 52° ENE 06:11:02 10° SSE
Cosmos 405 Rocket 4.5 06:04:38 10° N 06:08:03 30° ENE 06:11:24 10° SE
Cosmos 1269 Rocket 4.0 06:04:27 10° SSW 06:09:45 86° ESE 06:15:06 10° NNE
Cosmos 1420 Rocket 4.4 06:09:18 29° WNW 06:11:15 41° WSW 06:16:06 10° S
CSL-04 Rocket 3.7 06:07:45 10° NNE 06:13:21 85° ESE 06:18:50 10° SSW
SL-8 Rocket 3.9 06:09:14 10° SSW 06:15:28 79° W 06:21:43 10° N
Cosmos 468 4.4 06:11:35 10° SSW 06:16:50 66° WNW 06:22:09 10° NNE
USA 215 3.7 06:11:58 10° ENE 06:18:27 62° SE 06:24:54 10° SW
Cosmos 2237 Rocket 4.2 06:18:51 10° NNW 06:19:05 10° NNW 06:19:49 10° NNW
Ariane Rocket 2.9 06:14:52 10° N 06:19:55 70° WNW 06:24:57 10° SSW
Cosmos 1455 Rocket 2.9 06:18:37 10° S 06:22:57 88° WNW 06:27:20 10° N
Cosmos 1331 Rocket 4.1 06:18:48 11° NNW 06:23:51 78° ENE 06:29:00 10° SSE
CSL-04 Debris 4.2 06:18:51 10° NNE 06:24:22 89° ESE 06:29:51 10° SSW
GRACE-2 4.4 06:25:43 37° WSW 06:25:43 37° WSW 06:28:03 10° SSW
Cosmos 1959 Rocket 4.4 06:21:23 10° SSW 06:27:29 76° W 06:33:38 10° N
Cosmos 1048 Rocket 3.9 06:24:27 10° SSW 06:29:36 74° WNW 06:34:51 10° NNE
Cosmos 2366 rocket 4.0 06:23:29 10° S 06:29:49 83° W 06:36:14 10° N
Meteor 1-29 3.5 06:26:53 10° SSE 06:30:12 57° ENE 06:33:33 10° N
Cosmos 1975 3.0 06:27:09 10° S 06:31:16 79° E 06:35:23 10° NNE
Lacrosse 4 Rocket 2.5 06:32:24 23° W 06:33:33 26° WSW 06:36:57 10° SSW
Cosmos 1025 Rocket 4.3 06:34:47 20° W 06:34:47 20° W 06:37:48 10° SW
CENTAUR R/B 3.9 06:30:44 17° NW 06:34:41 28° N 06:41:04 10° NE
ATLAS 5 CENTAUR R/B 3.3 06:29:56 13° NNW 06:34:43 41° NE 06:40:36 10° ESE
Cosmos 2369 Rocket 3.9 06:37:31 14° W 06:37:31 14° W 06:40:01 10° SW
Cosmos 2218 Rocket 4.1 06:36:22 10° SSW 06:42:41 62° WNW 06:49:01 10° N
SPOT 3 Rocket 4.1 06:37:43 10° NNE 06:42:51 63° ESE 06:47:57 10° S
Abrixas rocket 2.3 06:44:07 18° W 06:46:29 75° S 06:49:51 10° E
SL-27 R/B 2.4 06:45:00 10° SSW 06:48:35 86° WNW 06:52:16 10° NNE
ADEOS II 3.9 06:47:34 10° NNW 06:48:24 11° NW 06:48:24 11° NW
COSMOS 2406 3.3 06:44:52 10° SSW 06:50:32 86° ESE 06:56:16 10° NNE
USA 129 4.0 06:53:07 10° SW 06:53:42 13° WSW 06:53:42 13° WSW
YAOGAN 1 2.7 06:50:12 10° NNE 06:54:33 82° ESE 06:58:54 10° SSW
Cosmos 1515 4.3 06:51:24 10° NNW 06:54:58 37° W 06:58:30 10° SSW
Cosmos 2369 4.3 06:50:15 10° NNW 06:55:52 57° ENE 07:01:24 10° SE
Cosmos 1867 3.6 06:50:35 11° NW 06:55:55 88° NE 07:01:23 10° SE
MOS 1 4.4 06:52:16 10° NNE 06:57:58 82° ESE 07:03:38 10° SSW
Cosmos 1727 Rocket 4.3 06:53:50 10° NNW 06:59:41 46° W 07:05:33 10° SSW
ATLAS 3B R/B 3.2 06:54:06 10° NW 07:01:02 55° NE 07:07:33 10° ESE
Cosmos 1484 Rocket 3.7 06:58:45 10° NNE 07:02:30 51° E 07:06:15 10° S
Cosmos 1943 Rocket 3.6 07:00:47 12° WNW 07:03:31 17° W 07:06:58 10° SW
Cosmos 1110 Rocket 4.4 06:58:34 10° NNW 07:03:34 46° WSW 07:08:30 10° S
Cosmos 494 Rocket 4.3 06:58:56 10° SSW 07:04:02 71° ESE 07:09:14 10° NNE
Cosmos 1602 Rocket 3.9 06:59:46 10° NNW 07:04:02 44° W 07:08:16 10° SSW
Helios 1B rocket 2.8 07:00:49 10° S 07:04:48 46° W 07:08:50 10° NNW
Cosmos 1666 4.2 07:01:29 10° SSE 07:05:02 40° E 07:08:37 10° NNE
MSX 4.2 06:59:28 10° NNE 07:05:13 70° ESE 07:10:57 10° S
Cosmos 2084 Rocket 4.3 07:04:33 10° NNW 07:08:07 36° NE 07:11:45 10° ESE
Cosmos 1943 4.3 07:05:10 10° W 07:09:42 24° NW 07:14:15 10° NNE
NOSS 3-1 (C) 3.5 07:07:19 10° SW 07:13:19 86° NW 07:20:06 10° NE
IDEFIX/ARIANE 42P 2.6 07:10:30 10° N 07:15:40 66° WNW 07:20:49 10° SSW
SJ-7 4.5 07:12:29 10° N 07:16:35 58° WNW 07:20:36 10° SSW
Cosmos 158 Rocket 4.3 07:12:03 10° SW 07:17:11 46° WNW 07:22:24 10° NNE
Meteor 1-21 4.2 07:12:08 10° NNW 07:17:47 79° W 07:23:27 10° S
Cosmos 1461 3.1 07:16:46 10° WSW 07:20:52 47° NW 07:24:52 10° NNE
Cosmos 1953 Rocket 3.8 07:18:38 10° N 07:23:05 78° ENE 07:27:33 10° SSE
Cosmos 1758 Rocket 3.8 07:19:53 10° N 07:24:17 73° ENE 07:28:36 10° SSE
COSMOS 2441 4.4 07:19:28 10° NNE 07:24:25 86° WNW 07:29:18 10° SSW
CZ-2C R/B 2.7 07:19:47 10° N 07:24:48 52° WNW 07:29:41 10° SW
Cosmos 1500 3.9 07:23:12 10° SW 07:26:35 31° WNW 07:29:59 10° N
CZ-4C R/B 3.0 07:21:19 10° NW 07:28:14 82° NE 07:36:00 10° SE
Cosmos 1842 3.2 07:25:20 10° N 07:29:16 84° W 07:33:09 10° S
Cosmos 1743 2.9 07:26:52 10° SSW 07:30:43 55° WNW 07:34:34 10° N
